Location: Cieszkowy
(50.3290°N, 20.5336°E)
Time: 00:41:20
(UTC+00:00)

Cosmos 1934 Rocket - Pass Details

Date: 15 June 2024
Orbit: 937 x 999 km, 83.0° (Epoch: 18 July)

Event Time Altitude Azimuth Distance (km) Brightness Sun altitude
Exits shadow 01:38:11 - 187° (S) 3,593 6.5 -6.3°
Reaches altitude 10° 01:40:25 10° 187° (S) 2,753 5.9 -6.1°
Maximum altitude 01:46:46 90° 131° (SE) 1,007 4.2 -5.4°
Drops below altitude 10° 01:53:12 10° 10° (N) 2,781 7.4 -4.7°
Sets 01:55:44 0° 10° (N) 3,732 8.1 -4.4°
